Zurück zum Katalog

SL-8 DEB

AktivLEO
NORAD 11113·DEBRIS·🇷🇺 Russia

Gestartet Nov 16, 1978 von Plesetsk Cosmodrome

Loading…

Nächste Überflüge (nächste 24 Stunden)

TLE

AktuellSource: Space-Track

Epoche: Sep 14, 2026, 12:55 UTC

1 11113U 78105C   26257.53855608  .00003182  00000-0  33656-3 0  9990
2 11113  74.0169 299.6525 0004831 101.4748 258.6976 14.89651519533222

Verfolge SL-8 DEB in Echtzeit mit AllMySat

Download on the App Store